Lexington Weather

Lexington, Massachusetts, USA

27°F
12/12/2019 4:47pm 
  • Lexington Conditions: Partly cloudy
  • Temperature: 27.0°F / -2.8°CColder 1.8°F than last hour.
  • Dew Point: 19.4°FDecreased 0.9°Fsince last hour.
  • Relative Humidity: 73%Increased 3.0% since last hour.
  • Wind: Wind from WSW WSW Calm, 10-min avg: 1 mph, gust: 2 mph
  • Barometer: 30.66 in Steady
  • Visibility: 10 miles
  • Snow Today: 0.0 in
  •   

Regional Weather Roundup
for Boston / Norton, MA

        
000
ASUS41 KBOX 121901
RWRBOX

REGIONAL WEATHER ROUNDUP
NATIONAL WEATHER SERVICE BOSTON/NORTON MA
200 PM EST THU DEC 12 2019

NOTE:  "FAIR" INDICATES FEW OR NO CLOUDS BELOW 12,000 FEET WITH NO 
SIGNIFICANT WEATHER AND/OR OBSTRUCTIONS TO VISIBILITY.

MAZALL-122000-
EASTERN MASSACHUSETTS
  
CITY           SKY/WX    TMP DP  RH WIND       PRES   REMARKS
BOSTON         PTSUNNY   32  11  41 NW8       30.68F WCI  25          
BEVERLY        FAIR      29  12  49 W8        30.67S WCI  21          
LAWRENCE       FAIR      28  11  48 W9        30.68S WCI  19          
BEDFORD        FAIR      30  11  45 W5        30.67S WCI  25          
BLUE HILL        N/A     26  15  63 W6        30.63F WCI  19          
NORWOOD        FAIR      33  14  45 VRB6      30.68F WCI  28          
MARSHFIELD     NOT AVBL                                               
PLYMOUTH       FAIR      28  16  60 W5        30.67F WCI  23          
TAUNTON        FAIR      32  15  49 N7        30.67F WCI  26          
NEW BEDFORD    FAIR      31  17  56 NW5       30.67F WCI  26          
$$

MAZALL-122000-
CAPE COD AND THE ISLANDS
  
CITY           SKY/WX    TMP DP  RH WIND       PRES   REMARKS
FALMOUTH       SUNNY     28  16  59 N5        30.67F WCI  23          
HYANNIS        NOT AVBL                                               
CHATHAM        FAIR      31  18  58 N8        30.67F WCI  23          
PROVINCETOWN   FAIR      32  18  56 NW14G20   30.68F WCI  22          
NANTUCKET      FAIR      33  19  56 N12       30.67F WCI  24          
MARTHAS VNYRD  FAIR      31  17  56 NW7       30.67F WCI  24          
$$
 
MAZALL-122000-
CENTRAL AND WESTERN MASSACHUSETTS
  
CITY           SKY/WX    TMP DP  RH WIND       PRES   REMARKS
WORCESTER      FAIR      25  12  58 W9        30.61F WCI  15          
FITCHBURG      FAIR      29  12  49 VRB6      30.66F WCI  23          
ORANGE         FAIR      30   9  41 NW6       30.65S WCI  24          
SPRINGFIELD    NOT AVBL                                               
WESTFIELD      FAIR      31  12  45 CALM      30.67F                  
NORTH ADAMS    FAIR      27   9  46 S6        30.63F WCI  20          
PITTSFIELD     FAIR      25  10  53 SW3       30.59F                  
$$
 
RIZALL-122000-
RHODE ISLAND
  
CITY           SKY/WX    TMP DP  RH WIND       PRES   REMARKS
PROVIDENCE     PTSUNNY   32  15  49 CALM      30.68F                  
NEWPORT        FAIR      32  15  49 N7        30.67F WCI  26          
BLOCK ISLAND   FAIR      32  17  54 NE5       30.69F WCI  27          
SMITHFIELD     FAIR      31  17  56 N6        30.66F WCI  25          
WESTERLY       FAIR      34  14  43 N3        30.69S                  
$$
 
CTZALL-122000-
CONNECTICUT
  
CITY           SKY/WX    TMP DP  RH WIND       PRES   REMARKS
BRADLEY INTL   PTSUNNY   31  13  47 W6        30.68F WCI  25          
HARTFORD       FAIR      32  14  47 N5        30.69F WCI  27          
BRIDGEPORT     FAIR      34  15  46 NE6       30.69F WCI  29          
DANBURY        FAIR      30  11  45 CALM      30.67F                  
GROTON         NOT AVBL                                               
NEW HAVEN      PTSUNNY   35  14  42 VRB3      30.68F                  
CHESTER        FAIR      32  14  47 NW6       30.66S WCI  26          
MERIDEN        FAIR      32  13  45 NW6       30.68F WCI  26          
WILLIMANTIC    FAIR      30  15  53 N7        30.69F WCI  23          
OXFORD         FAIR      28  15  58 N6        30.65F WCI  22          
$$

MEZ002-015-021-024-NHZ003-005-008-011-012-014-VTZ005-008-122000-
NORTHERN NEW ENGLAND
  
CITY           SKY/WX    TMP DP  RH WIND       PRES   REMARKS
PORTLAND ME    FAIR      33   6  32 W8        30.63S WCI  26          
BANGOR ME      FAIR      26   0  32 W9        30.59R WCI  17          
CONCORD NH     FAIR      30   4  33 W10       30.63F WCI  21          
MANCHESTER NH  PTSUNNY   31   6  35 W3        30.63F                  
NASHUA NH      FAIR      31  12  45 W7        30.66F WCI  24          
PORTSMOUTH NH  MOSUNNY   30   6  35 W5        30.64S WCI  25          
JAFFREY NH     FAIR      27   7  42 W7        30.60S WCI  19          
KEENE NH       FAIR      30  10  43 SW8       30.64S WCI  22          
BURLINGTON VT  PTSUNNY   27   8  44 E3        30.61F                  
MT. WASHINGTON FOG       -2  -2 100 W53         N/A  VSB 1/16WCI -35  
$$

NYZ052-076-122000-
EASTERN NEW YORK
  
CITY           SKY/WX    TMP DP  RH WIND       PRES   REMARKS
ALBANY         PTSUNNY   31  11  43 SE5       30.67F WCI  26          
NEW YORK CITY  PTSUNNY   34   6  31 E5        30.69F WCI  30          
$$
 
ANZALL-122000-
MARINE OBSERVATIONS
  
STATION/POSITION TIME  TEMP    WIND        PRES    VSBY  WAVE
                       AIR SEA DIR/SP/G                  HT/PER
                 (UTC) (F)     (DEG/KT/KT) (MB)    (MI)  (FT/S)
BOSTON BUOY      1750   29 46  290/ 12/ 14 1038.6          2/ 3
BUZZARDS BAY     1800   30     340/  9/ 11 1039.7F
NANTUCKET SOUND  1800      42              1039.4
MASS BAY-STELLWA 1804   29 46  310/ 10/ 14 1037.3R  1 7/8  1/ 3
ISLE OF SHOALS   1800   28     280/ 10/ 12 1037.9S
S OF BLOCK IS    1830      52                N/A           3/ 5
$$

......................KEY.........................
  SKY/WX - SKY CONDITION/PRESENT WEATHER
  TMP    - TEMPERATURE IN FAHRENHEIT
  DWPT   - DEWPOINT IN FAHRENHEIT
  RH     - RELATIVE HUMIDITY IN PERCENT
  WIND   - DIRECTION AND SPEED IN MPH
  PRES   - MEAN SEA LEVEL PRESSURE IN INCHES OF HG
  WCI    - WIND CHILL INDEX
  VSB    - VISIBILITY IN MILES
  HX     - HEAT INDEX
  TC     - TEMPERATURE IN CELSIUS
  VRB    - VARIABLE WIND DIRECTION
  N/A    - NOT AVAILABLE
  
      

Other recent Regional Weather Roundups

Thu Dec 12, 4:10pm

Thu Dec 12, 4:01pm

Thu Dec 12, 3:10pm

Thu Dec 12, 3:00pm

Thu Dec 12, 2:10pm

Thu Dec 12, 1:10pm

Thu Dec 12, 1:00pm

Thu Dec 12, 12:10pm

Thu Dec 12, 12:00pm

Thu Dec 12, 11:10am

Thu Dec 12, 11:00am

Thu Dec 12, 10:10am

Thu Dec 12, 8:10am

Thu Dec 12, 8:00am

Thu Dec 12, 7:10am

Thu Dec 12, 7:00am

Thu Dec 12, 6:10am

Thu Dec 12, 6:00am

Thu Dec 12, 5:10am

Thu Dec 12, 5:00am

Thu Dec 12, 4:10am

Thu Dec 12, 4:00am

Thu Dec 12, 3:10am

Thu Dec 12, 3:00am

Thu Dec 12, 2:10am

Thu Dec 12, 2:00am

Thu Dec 12, 1:10am

Thu Dec 12, 1:00am

Thu Dec 12, 12:10am

Thu Dec 12, 12:00am

Wed Dec 11, 11:10pm

Wed Dec 11, 11:00pm

Wed Dec 11, 10:10pm

Wed Dec 11, 10:00pm

Wed Dec 11, 9:10pm

Wed Dec 11, 9:00pm

Wed Dec 11, 8:10pm

Wed Dec 11, 8:00pm

Wed Dec 11, 7:10pm

Wed Dec 11, 7:00pm

Wed Dec 11, 6:10pm

Wed Dec 11, 6:00pm

Wed Dec 11, 5:10pm

Wed Dec 11, 5:01pm

Wed Dec 11, 4:10pm

Wed Dec 11, 4:00pm

Wed Dec 11, 3:10pm

Wed Dec 11, 3:01pm

Wed Dec 11, 2:10pm

Wed Dec 11, 2:00pm

Wed Dec 11, 1:10pm

Wed Dec 11, 1:00pm

Wed Dec 11, 12:10pm

Wed Dec 11, 12:00pm

Wed Dec 11, 11:10am

Wed Dec 11, 11:00am

Wed Dec 11, 10:10am

Wed Dec 11, 10:00am

Wed Dec 11, 9:10am

Wed Dec 11, 9:00am

Wed Dec 11, 8:10am

Wed Dec 11, 8:00am

Wed Dec 11, 7:10am

Wed Dec 11, 7:00am

Wed Dec 11, 6:10am

Wed Dec 11, 6:00am

Wed Dec 11, 5:10am

Wed Dec 11, 5:00am

Wed Dec 11, 4:10am

Wed Dec 11, 4:00am

Wed Dec 11, 3:10am

Wed Dec 11, 3:01am

Wed Dec 11, 2:10am

Wed Dec 11, 2:01am

Wed Dec 11, 1:10am

Wed Dec 11, 1:00am

Wed Dec 11, 12:10am

Wed Dec 11, 12:00am

Tue Dec 10, 11:10pm

Tue Dec 10, 11:00pm

Tue Dec 10, 10:10pm

Tue Dec 10, 10:00pm

Tue Dec 10, 9:10pm

Tue Dec 10, 9:01pm

Tue Dec 10, 8:10pm

Tue Dec 10, 8:00pm

Tue Dec 10, 7:10pm

Tue Dec 10, 7:01pm

Tue Dec 10, 6:10pm

Tue Dec 10, 6:01pm

Tue Dec 10, 5:10pm

Tue Dec 10, 5:00pm

Tue Dec 10, 4:10pm

Tue Dec 10, 4:01pm

Tue Dec 10, 3:10pm

Tue Dec 10, 3:01pm

Tue Dec 10, 2:10pm

Tue Dec 10, 2:01pm

Tue Dec 10, 1:10pm

Tue Dec 10, 1:00pm

Tue Dec 10, 12:10pm

Tue Dec 10, 12:00pm

Tue Dec 10, 11:10am

Tue Dec 10, 11:00am

Tue Dec 10, 10:10am

Tue Dec 10, 10:00am

Tue Dec 10, 9:10am

Tue Dec 10, 9:01am

Tue Dec 10, 8:10am

Tue Dec 10, 8:00am

Tue Dec 10, 7:10am

Tue Dec 10, 7:00am

Tue Dec 10, 6:10am

Tue Dec 10, 6:00am

Tue Dec 10, 5:10am

Tue Dec 10, 5:00am

Tue Dec 10, 4:10am

Tue Dec 10, 4:00am

Tue Dec 10, 3:10am

Tue Dec 10, 3:00am

Tue Dec 10, 2:10am

Tue Dec 10, 2:01am

Tue Dec 10, 1:10am

Tue Dec 10, 1:00am

Tue Dec 10, 12:10am

Tue Dec 10, 12:01am

Mon Dec 9, 11:10pm

Mon Dec 9, 11:01pm

Mon Dec 9, 10:10pm

Mon Dec 9, 10:00pm

Mon Dec 9, 9:10pm

Mon Dec 9, 9:01pm

Mon Dec 9, 8:10pm

Mon Dec 9, 8:01pm

Mon Dec 9, 7:10pm

Mon Dec 9, 7:00pm

Mon Dec 9, 6:10pm

Mon Dec 9, 6:00pm

Mon Dec 9, 5:10pm

Mon Dec 9, 5:01pm

Meta data:

ID: ad94a110-1791-4197-b14b-f5f1739533c6
Link: https://api.weather.gov/products/ad94a110-1791-4197-b14b-f5f1739533c6